Location: Newark
(45.8667°N, 9.7333°E)
Time: 19:44:12
(UTC+00:00)

Vanguard 3 - Pass Details

Date: 29 January 2020
Orbit: 508 x 3263 km, 33.3° (Epoch: 17 February)

Event Time Altitude Azimuth Distance (km) Brightness Sun altitude
Rises 15:16:07 0° 227° (SW) 6,429 14.1 8.9°
Reaches altitude 10° 15:20:19 10° 222° (SW) 5,686 13.7 8.3°
Maximum altitude 15:37:17 45° 157° (SSE) 4,013 10.9 5.9°
Drops below altitude 10° 15:54:20 10° 94° (E) 5,740 11.0 3.3°
Sets 15:58:34 0° 88° (E) 6,495 11.2 2.7°
